Flag for Germany Weather past 2 weeks in Alfeld (Leine), Lower Saxony, Germany

Now
36 °F

Light rain. Low clouds.


Feels Like: 36 °F
Forecast: 36 / 41 °F
Wind: 2 mph from Southwest

Location: Braunschweig

Current Time: Jan 25, 2015 at 5:49:03 PM

Latest Report: Jan 25, 2015 at 5:20 PM


Visibility: 3 mi

Pressure: 30.30 "Hg

Humidity: 100%

Dew point: 36 °F

Location of Alfeld (Leine)Location

Historic Weather in Alfeld (Leine) — Graph

°F

Alfeld (Leine) temperature yesterday

Maximum temperature yesterday: 36 °F (at 11:50 AM)
Minimum temperature yesterday: 25 °F (at 7:50 AM)
Average temperature yesterday: 31 °F

Past Weeks' High & Low Weather Summary

 TemperatureHumidityPressure
High52 °F (Jan 13, 12:50 PM)100% (Jan 17, 8:50 AM)30.30 "Hg (Jan 17, 8:50 AM)
Low23 °F (Jan 21, 6:50 AM)57% (Jan 16, 12:50 PM)29.47 "Hg (Jan 15, 5:20 PM)
Average37 °F84%29.90 "Hg
* Reported Jan 10 4:50 PM — Jan 25 4:50 PM, Alfeld (Leine), Weather by CustomWeather, © 2014

Note: Actual official high and low records may vary slightly from our data, if they occured in-between our weather recording intervals... More about our weather records

Advertising

Alfeld (Leine) weather history for previous 24 hours

 ConditionsComfort  
Time TempWeatherWind HumidityBarometerVisibility
4:50 PM
Jan 25
34 °FRain. Low clouds.5 mph100%30.30 "Hg2 mi
4:20 PM34 °FFog.6 mph100%30.30 "Hg3 mi
3:50 PM34 °FLight snow. Fog.6 mph100%30.30 "Hg3 mi
3:20 PM36 °FRain. Low clouds.7 mph100%30.27 "Hg4 mi
2:50 PM36 °FRain. Low clouds.6 mph100%30.27 "Hg4 mi
2:20 PM36 °FRain. Low clouds.8 mph100%30.27 "Hg4 mi
1:50 PM36 °FLow clouds.8 mph100%30.27 "Hg4 mi
1:20 PM36 °FDrizzle. Low clouds.7 mph100%30.30 "Hg4 mi
12:50 PM36 °FLight rain. Low clouds.7 mph100%30.30 "Hg4 mi
12:20 PM36 °FLow clouds.8 mph100%30.30 "Hg5 mi
11:50 AM36 °FLow clouds.7 mph100%30.30 "HgN/A
11:20 AM36 °FLow clouds.8 mph100%30.30 "HgN/A
10:50 AM34 °FLow clouds.7 mph100%30.30 "Hg5 mi
10:20 AM34 °FLow clouds.6 mph100%30.30 "Hg5 mi
9:50 AM32 °FPartly sunny.6 mph100%30.30 "Hg5 mi
9:20 AM32 °FMostly cloudy.6 mph100%30.30 "Hg5 mi
8:50 AM30 °FBroken clouds.5 mph100%30.30 "Hg5 mi
8:20 AM28 °FScattered clouds.5 mph100%30.27 "Hg5 mi
7:50 AM30 °FPartly cloudy.6 mph100%30.27 "Hg5 mi
11:50 PM
Jan 24
32 °FPartly cloudy.8 mph100%30.18 "Hg4 mi
5:50 PM32 °FLight snow. Ice fog.8 mph100%30.07 "Hg2 mi
5:20 PM32 °FLight snow. Ice fog.8 mph100%30.07 "Hg2 mi
Weather by CustomWeather, © 2014

See weather overviewHow to use our weather pages